Simultaneous Nadir Overpasses (SNOs) Predictions

Prediction of SNOs between LANDSAT-8 and NOAA-19 Satellite Orbit:

Table of predicted SNOs for the next 14.0 days since TLE Epoch: 8/2/2014
Index Date (LANDSAT-8) Time (LANDSAT-8) Lat,Lon (LANDSAT-8) SZA (LANDSAT-8 ) Date (NOAA-19) Time (NOAA-19) Lat,Lon (NOAA-19) SZA (NOAA-19 ) Distance(km) Time Diff (sec)
1 08/02/2014 20:08:50 72.12,-122.69 54.42 08/02/2014 20:08:11 72.14,-122.73 54.44 2.75 39
2 08/02/2014 20:58:20 -72.01, 44.74 125.69 08/02/2014 20:59:14 -71.99, 44.80 125.71 2.78 54
3 08/05/2014 00:53:08 72.17, 166.31 55.04 08/05/2014 00:52:00 72.18, 166.28 55.06 1.77 68
4 08/05/2014 01:42:38 -72.06, -26.25 125.06 08/05/2014 01:43:04 -72.07, -26.29 125.04 2.42 26
5 08/07/2014 06:26:56 -72.10, -97.25 124.42 08/07/2014 06:26:53 -72.12, -97.30 124.39 2.79 3
6 08/07/2014 07:16:31 71.57, 69.48 55.08 08/07/2014 07:17:40 71.59, 70.98 55.08 52.88 69
7 08/09/2014 11:11:14 -72.13,-168.27 123.76 08/09/2014 11:10:41 -72.12,-168.23 123.77 1.70 33
8 08/09/2014 12:00:41 72.03, -0.81 56.15 08/09/2014 12:01:37 72.04, -0.82 56.17 1.62 56
9 08/11/2014 15:55:32 -72.15, 120.70 123.09 08/11/2014 15:54:30 -72.18, 120.72 123.06 3.33 62
10 08/11/2014 16:44:59 72.05, -71.84 56.82 08/11/2014 16:45:25 72.05, -71.76 56.82 2.82 26
11 08/13/2014 20:39:38 -72.81, 50.84 121.78 08/13/2014 20:38:31 -72.86, 48.39 121.70 80.67 67
12 08/13/2014 21:29:16 72.12,-142.79 57.55 08/13/2014 21:29:14 72.11,-142.81 57.55 1.16 2
13 08/13/2014 22:18:58 -71.37,
